Daviess Cnty AP, Washington,, IN

8:52 AM EDT on July 19, 2019 (GMT -0400)
Daviess County

Weather History for KDCY - May, 2019

Change the Weather History Date:

Wednesday, May 22, 2019

  Actual Average (KLWV) Record (KLWV)
Temperature  
Mean Temperature 70 °F -  
Max Temperature 79 °F 74 °F 90 °F (2004)
Min Temperature 61 °F 54 °F 41 °F (1997)
Cooling Degree Days 5    
Growing Degree Days 20 (Base 50)    
Moisture  
Dew Point 65 °F    
Average Humidity 88    
Maximum Humidity 99    
Minimum Humidity 65    
Precipitation  
Precipitation 0.44 in - - ()
Sea Level Pressure  
Sea Level Pressure 29.95 in    
Wind  
Wind Speed 8 mph (South)    
Max Wind Speed 15 mph    
Max Gust Speed 20 mph    
Visibility 10 miles    
Events Rain    
Averages and records for this station are not official NWS values.
T = Trace of Precipitation, MM = Missing Value Source: NWS Daily Summary

Daily Weather History Graph

Daily Weather History Graph

Search for Another Location

Airport or City:

Astronomy

May. 22, 2019 Rise Set
Actual Time 6:31 AM EDT 8:59 PM EDT
Civil Twilight 6:00 AM EDT 9:30 PM EDT
Nautical Twilight 5:22 AM EDT 10:08 PM EDT
Astronomical Twilight 4:41 AM EDT 10:50 PM EDT
Moon No Moon Rise 9:39 AM EDT (5/22)
Length of Visible Light 15h 29m
Length of Day
14h 28m
Waning Gibbous, 85% of the Moon is Illuminated
May 22
Waning Gibbous
May 26
Last Quarter
Jun 3
New
Jun 10
First Quarter
Jun 17
Full

Hourly Weather History & Observations

Time (EDT) Temp. Dew Point Humidity Pressure Visibility Wind Dir Wind Speed Gust Speed Precip Events Conditions
12:15 AM 66.2 °F 57.7 °F 74% 29.85 in 10.0 mi SE 11.5 mph 16.1 mph N/A   Clear
12:35 AM 66.4 °F 57.7 °F 74% 29.85 in 10.0 mi SE 12.7 mph - N/A   Scattered Clouds
12:55 AM 66.4 °F 57.6 °F 73% 29.83 in 10.0 mi SE 12.7 mph - N/A   Mostly Cloudy
1:15 AM 66.6 °F 57.6 °F 73% 29.83 in 10.0 mi SE 15.0 mph - N/A   Scattered Clouds
1:35 AM 66.7 °F 57.7 °F 73% 29.83 in 10.0 mi SE 12.7 mph - N/A   Scattered Clouds
1:50 AM 66.9 °F 57.9 °F 73% 29.83 in 10.0 mi SE 11.5 mph 18.4 mph N/A   Scattered Clouds
2:15 AM 67.5 °F 58.1 °F 72% 29.83 in 10.0 mi SSE 11.5 mph - N/A   Clear
2:35 AM 67.8 °F 58.5 °F 72% 29.82 in 10.0 mi SE 13.8 mph 19.6 mph N/A   Scattered Clouds
2:55 AM 67.5 °F 59.0 °F 74% 29.81 in 10.0 mi SSE 11.5 mph - N/A   Mostly Cloudy
3:15 AM 68.4 °F 59.2 °F 72% 29.86 in 10.0 mi West 12.7 mph - N/A   Overcast
3:35 AM 67.1 °F 60.6 °F 80% 29.87 in 10.0 mi West 8.1 mph - N/A Rain Light Rain
3:55 AM 65.3 °F 63.9 °F 95% 29.87 in 10.0 mi West 9.2 mph - N/A   Overcast
4:15 AM 64.9 °F 64.8 °F 99% 29.88 in 10.0 mi WNW 4.6 mph - N/A   Overcast
4:35 AM 64.4 °F 64.0 °F 99% 29.88 in 10.0 mi NW 3.5 mph - N/A   Overcast
4:55 AM 64.4 °F 64.2 °F 99% 29.90 in 10.0 mi West 8.1 mph - N/A   Overcast
5:15 AM 63.9 °F 63.7 °F 99% 29.88 in 10.0 mi Calm Calm - 0.01 in Rain Rain
5:35 AM 63.7 °F 63.5 °F 99% 29.90 in 10.0 mi WNW 3.5 mph - 0.01 in   Overcast
5:55 AM 63.1 °F 63.0 °F 99% 29.89 in 10.0 mi Calm Calm - 0.01 in   Overcast
6:15 AM 63.1 °F 62.8 °F 99% 29.91 in 10.0 mi Calm Calm - N/A   Overcast
6:35 AM 62.8 °F 62.6 °F 99% 29.93 in 10.0 mi Calm Calm - N/A Rain Light Rain
6:55 AM 63.1 °F 62.8 °F 99% 29.93 in 10.0 mi Calm Calm - N/A   Overcast
7:15 AM 63.9 °F 63.0 °F 97% 29.95 in 10.0 mi West 4.6 mph - N/A Rain Light Rain
7:35 AM 63.0 °F 62.6 °F 99% 29.94 in 7.0 mi Calm Calm - 0.02 in Rain Rain
7:55 AM 62.8 °F 62.6 °F 99% 29.95 in 10.0 mi Calm Calm - 0.02 in   Overcast
8:15 AM 62.4 °F 62.1 °F 99% 29.95 in 10.0 mi Calm Calm - N/A   Overcast
8:35 AM 62.6 °F 62.4 °F 99% 29.94 in 10.0 mi Calm Calm - 0.01 in Rain Rain
8:55 AM 62.8 °F 62.2 °F 98% 29.94 in 1.0 mi Calm Calm - 0.02 in Rain Rain
9:15 AM 61.3 °F 61.2 °F 99% 29.96 in 1.5 mi SSE 5.8 mph - 0.20 in Rain Heavy Rain
9:35 AM 61.0 °F 60.8 °F 99% 29.97 in 2.5 mi South 13.8 mph 18.4 mph 0.32 in Rain Rain
9:55 AM 61.0 °F 60.8 °F 99% 29.97 in 4.0 mi SE 10.4 mph - 0.37 in Rain Rain
10:15 AM 61.0 °F 60.8 °F 99% 29.97 in 7.0 mi SE 11.5 mph - 0.02 in Rain Light Rain
10:30 AM 61.5 °F 61.2 °F 99% 29.97 in 10.0 mi SE 9.2 mph - 0.02 in   Overcast
10:55 AM 62.6 °F 62.4 °F 99% 29.99 in 10.0 mi South 10.4 mph - 0.02 in   Drizzle
11:15 AM 63.3 °F 63.0 °F 99% 29.99 in 10.0 mi SSE 11.5 mph - N/A Rain Light Rain
11:35 AM 63.7 °F 63.5 °F 99% 30.00 in 10.0 mi South 9.2 mph - N/A   Overcast
11:55 AM 63.9 °F 63.5 °F 99% 29.99 in 10.0 mi SSE 8.1 mph - N/A   Mostly Cloudy
12:15 PM 64.4 °F 64.0 °F 99% 29.98 in 10.0 mi SSE 8.1 mph - N/A   Overcast
12:35 PM 64.6 °F 64.4 °F 99% 29.99 in 10.0 mi South 6.9 mph - N/A   Overcast
12:55 PM 66.0 °F 65.7 °F 99% 29.97 in 10.0 mi SSE 11.5 mph - N/A   Overcast
1:15 PM 66.2 °F 66.0 °F 99% 29.98 in 10.0 mi SW 4.6 mph - N/A   Overcast
1:35 PM 68.5 °F 67.8 °F 98% 29.98 in 10.0 mi South 5.8 mph - N/A   Overcast
1:55 PM 69.6 °F 67.6 °F 93% 29.99 in 10.0 mi South 8.1 mph - N/A   Overcast
2:15 PM 70.2 °F 67.6 °F 92% 29.99 in 10.0 mi SSE 6.9 mph - N/A   Overcast
2:35 PM 71.1 °F 67.1 °F 87% 29.99 in 10.0 mi South 8.1 mph - N/A   Overcast
2:55 PM 72.7 °F 67.6 °F 84% 29.99 in 10.0 mi South 9.2 mph - N/A   Overcast
3:15 PM 73.4 °F 68.2 °F 84% 29.98 in 10.0 mi South 9.2 mph - N/A   Mostly Cloudy
3:35 PM 74.7 °F 67.8 °F 79% 29.98 in 10.0 mi South 10.4 mph - N/A   Mostly Cloudy
3:55 PM 75.2 °F 67.5 °F 77% 29.98 in 10.0 mi South 8.1 mph - N/A   Scattered Clouds
4:15 PM 75.6 °F 67.5 °F 76% 29.98 in 10.0 mi South 5.8 mph - N/A   Scattered Clouds
4:35 PM 77.2 °F 67.6 °F 72% 29.98 in 10.0 mi SW 8.1 mph - N/A   Mostly Cloudy
4:55 PM 77.9 °F 68.0 °F 71% 29.97 in 10.0 mi SSW 11.5 mph 16.1 mph N/A   Mostly Cloudy
5:15 PM 77.9 °F 67.5 °F 70% 29.97 in 10.0 mi SSW 10.4 mph 17.3 mph N/A   Scattered Clouds
5:35 PM 78.8 °F 67.5 °F 68% 29.97 in 10.0 mi South 10.4 mph - N/A   Scattered Clouds
5:55 PM 79.2 °F 66.9 °F 66% 29.98 in 10.0 mi South 9.2 mph - N/A   Scattered Clouds
6:15 PM 79.3 °F 66.7 °F 65% 29.98 in 10.0 mi SW 10.4 mph - N/A   Scattered Clouds
6:35 PM 78.6 °F 66.9 °F 67% 29.98 in 10.0 mi SSW 6.9 mph - N/A   Clear
6:55 PM 78.6 °F 66.6 °F 66% 29.98 in 10.0 mi SSW 8.1 mph - N/A   Clear
7:15 PM 78.8 °F 66.6 °F 66% 29.99 in 10.0 mi SSW 8.1 mph - N/A   Scattered Clouds
7:35 PM 78.1 °F 67.1 °F 69% 29.99 in 10.0 mi South 8.1 mph - N/A   Clear
7:55 PM 77.9 °F 66.7 °F 68% 29.99 in 10.0 mi South 6.9 mph - N/A   Clear
8:15 PM 76.3 °F 67.5 °F 74% 29.98 in 10.0 mi South 5.8 mph - N/A   Clear
8:35 PM 74.3 °F 68.5 °F 82% 29.99 in 10.0 mi SSE 4.6 mph - N/A   Clear
8:55 PM 72.3 °F 69.4 °F 91% 29.99 in 10.0 mi South 4.6 mph - N/A   Clear
9:15 PM 70.9 °F 70.7 °F 99% 29.99 in 10.0 mi South 5.8 mph - N/A   Clear
9:35 PM 70.7 °F 70.3 °F 99% 29.99 in 10.0 mi South 6.9 mph - N/A   Clear
9:55 PM 70.7 °F 70.2 °F 98% 29.99 in 10.0 mi South 5.8 mph - N/A   Clear
10:10 PM 70.7 °F 70.2 °F 98% 29.99 in 10.0 mi SSE 8.1 mph - N/A   Clear
10:35 PM 70.7 °F 70.0 °F 98% 29.99 in 10.0 mi SSE 6.9 mph - N/A   Clear
10:55 PM 70.2 °F 69.8 °F 99% 29.99 in 10.0 mi SSE 6.9 mph - N/A   Clear
11:15 PM 70.7 °F 70.2 °F 98% 30.00 in 10.0 mi South 5.8 mph - N/A   Scattered Clouds
11:35 PM 70.7 °F 70.3 °F 99% 30.00 in 10.0 mi South 5.8 mph - N/A   Scattered Clouds
11:55 PM 70.9 °F 70.5 °F 99% 30.00 in 10.0 mi South 5.8 mph - N/A   Mostly Cloudy